Theta_e
272 273 274 274 274 277 279 279 279 279 280 279 280 280 280 280 281 281 281 280 279 279 281 281 281 282 282 283 284 285 285 285 282 285 288 288 286 285 285 285 286 285 286
270 271 272 273 272 277 278 279 279 279 280 280 280 280 280 281 280 279 279 280 279 279 278 278 279 282 281 282 281 282 284 285 284 282 286 288 284 285 284 283 284 284 284
265 268 270 271 271 270 275 278 279 279 279 280 281 280 280 280 280 281 281 280 272 275 275 276 277 278 279 280 278 282 283 284 284 283 283 286 283 282 283 283 283 282 283
265 267 269 269 270 270 276 278 279 279 279 280 280 280 279 274 274 273 274 270 267 268 271 274 277 277 279 279 278 280 281 280 283 284 284 285 284 283 281 280 281 281 281
263 265 268 267 266 268 271 276 278 279 280 273 271 270 270 270 273 271 271 269 267 267 269 272 274 278 282 282 281 281 281 281 281 282 283 282 283 281 281 280 280 279 280
263 266 266 264 266 268 269 270 270 271 270 268 269 268 270 274 280 282 280 268 268 271 271 272 275 276 279 281 282 283 284 281 280 280 281 281 282 281 280 280 279 278 280
267 269 270 269 270 271 272 272 271 270 269 269 269 269 270 270 280 282 283 273 269 270 272 275 276 278 276 277 280 282 281 281 282 281 278 279 278 279 279 278 278 278 278
270 271 272 272 273 273 273 272 272 271 271 272 272 273 274 276 281 282 283 279 276 275 275 275 274 276 276 279 278 277 278 278 278 280 280 280 280 280 279 279 278 276 276
272 272 273 274 274 274 274 273 273 272 273 273 275 274 274 276 280 281 281 279 278 276 276 276 276 276 280 283 277 275 276 276 279 280 280 281 281 282 281 278 276 273 275
274 275 275 275 274 274 274 274 275 274 275 275 276 275 275 275 279 281 281 278 277 276 276 276 279 279 281 281 278 275 273 274 275 275 275 276 276 276 278 274 273 269 270
274 274 275 275 275 275 275 275 274 273 274 272 273 273 273 274 275 280 281 279 277 276 276 275 275 280 281 282 283 275 275 276 273 270 272 273 272 272 271 271 271 269 267
272 271 271 271 273 275 272 273 271 271 270 270 269 271 272 273 275 278 281 282 281 277 276 275 275 281 281 283 281 282 282 279 267 266 268 270 270 270 270 269 269 268 269
269 268 269 270 272 273 270 271 270 269 270 271 271 271 272 272 272 278 281 282 283 280 276 276 280 281 282 279 280 281 277 270 268 266 265 266 268 269 269 268 266 264 265
266 267 269 269 270 270 272 272 271 271 269 271 271 271 272 272 271 270 272 272 276 278 278 273 275 278 280 279 273 275 271 270 269 269 267 266 264 264 265 264 266 267 263
267 268 268 269 269 270 271 272 272 273 274 272 272 273 272 272 274 276 275 270 269 272 268 264 266 266 268 270 270 272 271 267 268 267 266 266 266 265 265 264 265 261 262
266 267 268 268 269 270 270 271 276 279 280 281 282 281 278 278 280 281 282 283 283 282 270 270 273 272 271 270 270 271 269 270 270 270 267 266 266 266 266 265 263 262 262
265 266 268 268 269 269 269 270 270 272 277 278 280 280 280 281 282 283 284 284 283 283 278 278 274 274 273 270 270 271 270 269 268 268 270 270 269 267 265 264 264 266 265
264 266 268 268 268 267 268 268 268 266 267 268 273 277 278 278 279 279 279 278 274 274 272 271 271 272 272 271 270 270 270 270 270 270 270 270 269 269 267 267 267 265 265
263 266 266 264 264 264 263 263 262 262 262 261 262 269 269 275 275 275 276 269 268 269 271 271 271 270 270 270 270 270 270 270 270 270 270 270 270 270 269 270 270 269 269
262 264 261 259 259 260 260 260 261 260 260 260 261 261 265 263 261 262 264 266 266 265 265 265 267 267 267 268 269 268 269 269 270 270 270 269 269 269 268 267 267 266 265
261 259 258 256 257 256 255 257 257 255 256 256 257 260 273 260 260 260 262 263 263 262 263 263 263 262 263 264 266 266 267 267 267 267 267 266 264 263 262 262 261 260 259
253 252 251 251 252 254 253 251 251 251 251 251 254 254 266 253 252 253 254 255 255 256 257 256 255 256 257 258 258 258 257 257 256 257 257 257 257 256 255 254 253 252 251
250 250 250 249 249 250 249 249 248 249 250 251 251 253 252 252 252 253 254 254 254 254 254 251 252 255 252 252 252 253 254 253 253 252 253 251 251 250 249 250 249 249 249
249 249 249 248 247 248 247 250 250 251 251 251 251 252 253 253 253 253 254 254 253 253 253 252 252 253 253 252 250 248 250 250 248 250 251 251 249 248 247 248 248 248 249
247 248 248 248 247 249 249 250 251 251 251 252 254 251 253 253 254 254 254 253 253 253 253 254 253 253 254 254 254 251 250 256 255 251 247 250 251 249 247 248 248 247 248
248 247 248 248 250 250 250 251 253 253 253 255 255 255 254 255 255 255 255 255 254 254 254 253 254 253 253 253 254 255 255 259 255 254 251 251 252 249 247 248 247 248 249
Wind_Speed
3 3 4 4 3 3 4 4 5 4 4 4 5 6 6 5 4 5 6 7 8 9 8 8 10 9 8 7 7 8 9 10 14 13 10 8 6 6 5 3 3 4 4
4 4 3 3 4 5 4 5 5 4 4 5 6 6 5 4 5 5 6 6 6 8 10 9 10 6 9 8 7 10 9 9 10 17 12 10 6 3 5 5 3 3 4
3 3 3 5 5 5 6 5 4 4 5 5 6 5 5 5 5 6 5 4 4 6 7 7 7 7 8 7 6 8 7 7 8 9 12 5 3 2 3 4 2 3 3
3 3 5 5 5 5 6 4 5 5 5 6 5 5 5 3 5 5 5 4 4 4 5 6 6 6 7 8 8 9 8 8 8 8 8 6 4 1 2 2 4 2 3
4 4 7 5 4 6 6 5 6 5 5 4 4 4 5 4 4 5 5 5 4 4 4 5 5 7 12 11 6 8 7 7 7 7 6 2 3 2 2 2 3 3 1
5 7 6 4 5 7 6 6 5 6 6 5 6 4 6 5 11 12 8 4 4 5 5 5 5 6 9 14 14 13 10 8 7 5 5 5 5 3 3 2 2 3 3
5 6 6 5 6 6 6 5 6 6 4 6 6 5 7 6 13 12 13 3 4 5 5 5 5 4 6 6 10 12 8 11 12 7 7 4 5 3 4 3 2 2 2
6 6 5 6 8 7 6 7 6 5 6 7 6 6 7 7 13 13 12 5 4 6 5 5 5 5 6 6 5 6 6 5 5 5 6 6 4 4 4 3 2 2 2
5 6 6 6 8 7 8 8 6 5 6 7 6 6 7 8 13 13 11 5 6 6 5 6 5 5 8 11 2 5 6 4 7 11 9 8 10 12 8 3 2 2 2
6 6 6 6 7 8 8 8 6 6 8 6 8 7 8 9 13 15 12 4 7 5 5 6 8 8 10 10 5 3 5 4 5 6 6 6 6 6 9 4 2 2 1
8 9 8 7 8 8 8 7 6 7 7 6 8 7 7 8 10 17 17 7 6 5 5 4 4 10 11 12 10 4 5 4 5 4 5 4 3 4 3 3 3 1 1
8 9 9 8 7 7 6 7 6 5 6 7 6 8 7 7 12 15 17 17 13 7 7 5 5 12 13 13 9 9 12 7 1 3 3 4 4 2 1 1 1 1 1
10 9 8 9 8 7 5 6 4 4 6 7 6 8 8 4 5 15 17 17 17 10 5 8 14 14 14 9 11 13 8 1 1 1 2 3 3 3 5 2 2 4 3
10 10 8 8 8 6 5 4 5 4 5 7 7 8 8 6 4 3 5 6 11 9 8 5 7 9 10 8 3 5 2 3 3 3 3 2 2 3 3 2 3 3 3
8 8 8 6 7 7 6 5 5 6 7 6 6 6 6 7 6 9 7 4 4 7 3 1 1 1 3 3 3 4 3 2 3 3 2 2 2 1 2 1 1 2 1
9 7 7 6 7 6 6 7 10 12 14 16 19 15 8 17 19 17 17 16 15 14 3 4 5 4 5 3 3 4 3 4 4 3 3 3 3 3 2 1 2 2 2
8 8 6 6 6 7 7 6 8 7 13 12 13 14 15 12 14 13 14 14 15 13 6 5 2 2 2 3 4 4 2 2 2 2 3 3 3 3 2 2 2 1 2
8 9 6 6 6 6 5 6 5 5 6 5 9 10 11 13 12 11 10 8 3 2 0 1 2 2 2 2 1 2 1 2 1 2 2 2 2 3 2 3 2 2 2
6 5 5 5 4 5 4 4 4 4 4 3 4 7 8 13 12 11 10 2 1 2 1 2 1 1 2 2 2 2 3 2 2 3 3 3 3 3 2 2 2 2 2
5 8 5 4 4 4 4 4 4 4 4 4 4 4 5 5 5 4 3 3 3 2 2 2 2 2 2 2 2 2 2 2 2 2 1 1 0 1 1 1 1 1 1
4 4 6 4 4 4 3 4 4 3 3 4 3 5 14 3 3 3 4 4 3 3 3 3 3 3 2 3 2 2 1 1 1 1 0 1 1 2 1 2 2 2 2
2 3 3 3 3 4 4 3 3 3 3 3 4 4 13 2 3 3 3 4 4 3 3 2 3 3 3 2 2 1 1 1 0 1 2 2 2 2 2 2 1 1 1
2 3 3 3 2 4 4 3 3 3 4 4 4 5 4 4 4 5 5 5 4 4 4 3 3 4 3 3 3 3 3 4 4 3 3 3 2 2 2 2 3 2 2
2 2 2 3 3 3 3 5 4 5 5 5 5 5 5 5 6 6 6 5 5 5 4 4 4 6 5 5 4 4 4 4 3 4 5 4 3 3 3 2 3 3 2
2 3 3 3 3 4 4 5 5 5 6 6 7 4 6 6 7 7 6 5 5 5 6 5 5 7 8 9 8 7 7 8 5 5 4 4 6 6 3 2 3 2 2
3 3 4 3 4 4 4 5 6 6 7 7 7 7 7 8 8 8 7 7 6 6 7 5 7 10 10 8 9 9 9 10 8 9 6 5 5 4 3 4 4 3 3
Wind_Direction
257 258 253 276 284 272 253 256 259 253 259 276 271 270 268 266 265 264 266 281 279 279 281 278 278 271 266 268 268 265 261 260 271 284 281 285 276 271 263 243 276 293 299
251 249 269 297 285 262 264 253 252 257 258 262 265 265 268 271 266 272 270 269 292 296 295 289 283 282 280 276 273 274 269 269 271 283 286 284 244 251 274 289 280 269 292
239 261 278 264 265 268 264 251 259 260 265 264 261 261 269 266 274 270 262 270 278 281 290 289 285 295 287 288 282 292 285 278 271 270 283 271 266 279 304 260 10 295 271
246 236 257 253 253 255 257 262 266 256 258 260 257 258 268 271 273 277 269 266 290 280 289 286 287 283 291 298 293 292 296 300 291 277 280 280 261 295 273 311 277 256 288
226 239 250 250 253 263 266 249 254 250 252 265 279 283 278 263 259 265 250 244 260 287 283 287 278 283 295 303 307 307 302 304 306 302 290 281 276 297 304 353 296 306 314
223 241 250 255 255 252 249 246 257 264 265 271 268 251 273 268 280 283 285 224 250 263 282 286 280 280 296 311 314 319 333 323 325 313 316 310 304 297 319 313 308 336 332
233 244 243 245 250 247 246 240 242 247 243 257 263 255 260 254 271 277 281 232 244 258 264 273 294 290 299 295 312 324 316 324 336 332 316 323 310 351 306 300 300 307 290
249 251 240 235 249 250 241 241 245 232 239 251 249 247 257 263 274 277 279 270 266 266 255 254 247 278 294 303 323 314 311 310 317 333 336 319 282 305 317 307 316 314 292
274 264 254 239 247 244 243 244 236 231 242 244 246 250 249 261 268 273 277 264 263 266 268 264 256 262 279 310 305 308 310 296 320 332 333 335 351 353 350 304 329 28 316
313 297 268 254 247 250 247 246 242 230 250 244 252 238 242 259 266 270 268 245 259 258 262 264 267 270 289 292 285 284 307 292 317 331 330 331 338 340 11 33 352 3 306
324 314 302 283 264 256 256 244 238 239 245 241 250 253 246 248 264 269 265 246 235 248 257 260 250 278 287 289 291 210 243 270 305 321 313 311 322 339 356 12 18 78 278
316 311 304 296 288 281 253 257 244 240 248 253 251 267 255 247 245 264 264 253 244 228 244 241 247 276 281 280 294 284 292 307 13 335 334 317 321 305 301 318 317 323 285
317 308 304 303 296 287 269 266 255 230 247 262 251 266 271 251 237 263 270 266 255 251 220 241 262 270 272 291 291 292 295 260 246 250 264 267 262 295 308 321 323 338 347
313 313 312 313 309 296 278 262 254 246 241 252 255 258 268 268 260 237 251 265 274 268 268 273 262 261 252 255 280 284 263 235 215 231 240 232 297 333 322 335 339 355 29
314 312 315 313 309 306 291 273 262 251 243 253 256 255 263 273 267 264 261 234 231 241 234 341 302 282 266 260 262 258 265 232 221 214 212 239 257 223 260 302 324 356 41
319 320 318 315 313 309 307 307 301 304 299 276 271 265 242 242 264 270 271 270 271 263 196 213 239 233 248 247 257 259 246 249 233 210 214 204 217 210 228 242 159 183 202
314 313 317 317 320 322 324 320 323 326 330 325 318 320 313 313 327 309 278 286 275 264 246 249 208 204 224 225 240 245 242 278 297 239 232 219 215 219 190 225 232 232 280
311 306 316 327 322 317 319 320 322 327 332 329 335 336 351 343 340 349 348 353 336 354 298 272 263 239 243 236 236 235 252 265 265 269 262 248 221 220 206 219 228 216 212
314 316 331 319 317 324 325 333 335 341 344 321 331 351 344 344 351 356 354 17 319 320 326 314 302 283 271 259 250 240 235 237 236 236 230 224 219 190 182 176 161 140 133
312 325 333 321 328 342 345 349 353 354 354 347 343 324 322 12 4 347 349 353 352 339 325 314 299 292 286 279 268 257 247 244 246 247 221 131 176 183 146 133 130 150 124
314 319 329 335 350 339 341 353 342 347 344 338 315 315 7 36 335 341 345 348 352 345 340 336 328 325 316 304 300 286 279 305 339 327 339 128 150 120 121 107 112 113 136
318 313 336 338 325 349 337 329 334 333 321 320 307 307 345 356 324 311 305 300 294 283 274 266 274 256 245 239 234 246 235 231 240 128 138 150 140 139 146 129 134 123 135
339 337 338 322 324 317 329 321 324 318 311 304 302 306 311 303 296 288 282 277 277 281 277 267 261 281 269 262 242 212 209 231 227 186 201 193 170 162 157 153 152 140 154
293 298 292 290 308 304 299 305 304 290 287 288 292 288 282 277 277 275 274 272 273 272 266 262 253 253 260 259 249 231 224 234 197 204 183 169 191 171 154 153 172 172 160
270 276 272 268 277 282 299 293 290 285 283 280 286 274 278 275 277 273 270 263 262 262 266 257 246 252 258 258 255 244 237 248 219 203 183 178 195 187 175 172 162 151 148
266 260 263 273 277 268 266 278 280 278 279 282 278 276 274 276 274 272 272 269 268 262 259 251 256 256 258 255 252 250 235 231 223 209 185 178 185 193 171 196 183 179 183